Orbital Elements at Epoch 2459200.5 (2020-Dec-17.0) TDB
Reference: JPL 33 (heliocentric ecliptic J2000)
Element | Value | Uncertainty (1-sigma) | Units |
e | .08505077873059071 | 2.468e-08 | |
a | 3.103358439190237 | 1.7904e-08 | au |
q | 2.839415387256957 | 7.9051e-08 | au |
i | 15.94588247817383 | 1.0675e-06 | deg |
node | 221.1947259631742 | 4.1398e-06 | deg |
peri | 137.3729818594197 | 1.5121e-05 | deg |
M | 284.3205281869078 | 1.4402e-05 | deg |
tp | 2459620.280178577611 (2022-Feb-09.78017858) | 8.0905e-05 | TDB |
period | 1996.854109409849 5.47 | 1.728e-05 4.731e-08 | d yr |
n | .1802835762029678 | 1.5601e-09 | deg/d |
Q | 3.367301491123517 | 1.9427e-08 | au |
|
| | Orbit Determination Parameters
Additional Information
|